Time,TemperatureF,DewpointF,PressureIn,WindDirection,WindDirectionDegrees,WindSpeedMPH,WindSpeedGustMPH,Humidity,HourlyPrecipIn,Conditions,Clouds,dailyrainin,SoftwareType,DateUTC
2013-02-25 00:00:00,58.6,52.1,30.30,South,180,1.6,3.1,79,0.00,,,0.00,,2013-02-24 11:00:00,
2013-02-25 00:10:00,58.5,52.0,30.30,SW,225,1.6,3.8,79,0.00,,,0.00,,2013-02-24 11:10:00,
2013-02-25 00:20:00,58.3,52.1,30.30,South,180,0.7,3.1,80,0.00,,,0.00,,2013-02-24 11:20:00,
2013-02-25 00:30:00,58.3,52.1,30.30,SW,225,0.0,1.6,80,0.00,,,0.00,,2013-02-24 11:30:00,
2013-02-25 00:40:00,58.3,52.5,30.30,South,180,1.6,2.2,81,0.00,,,0.00,,2013-02-24 11:40:00,
2013-02-25 00:50:00,58.1,52.3,30.30,South,180,1.6,3.1,81,0.00,,,0.00,,2013-02-24 11:50:00,
2013-02-25 01:00:00,58.1,52.3,30.30,SE,135,0.0,1.6,81,0.00,,,0.00,,2013-02-24 12:00:00,
2013-02-25 01:10:00,58.1,52.3,30.30,South,180,0.0,2.2,81,0.00,,,0.00,,2013-02-24 12:10:00,
2013-02-25 01:20:00,57.9,52.1,30.30,East,90,0.0,1.6,81,0.00,,,0.00,,2013-02-24 12:20:00,
2013-02-25 01:30:00,57.9,52.1,30.30,SW,225,0.0,0.7,81,0.00,,,0.00,,2013-02-24 12:30:00,
2013-02-25 01:40:00,57.9,52.1,30.30,SE,135,0.7,3.1,81,0.00,,,0.00,,2013-02-24 12:40:00,
2013-02-25 01:50:00,57.9,52.5,30.30,SE,135,2.2,3.1,82,0.00,,,0.00,,2013-02-24 12:50:00,
2013-02-25 02:00:00,57.9,52.5,30.30,North,0,0.0,0.7,82,0.00,,,0.00,,2013-02-24 13:00:00,
2013-02-25 02:10:00,57.9,52.5,30.20,South,180,0.0,1.6,82,0.00,,,0.00,,2013-02-24 13:10:00,
2013-02-25 02:20:00,57.9,52.5,30.20,NE,45,0.0,1.6,82,0.00,,,0.00,,2013-02-24 13:20:00,
2013-02-25 02:30:00,57.9,52.1,30.20,NE,45,0.7,2.2,81,0.00,,,0.00,,2013-02-24 13:30:00,
2013-02-25 02:40:00,58.3,52.5,30.20,North,0,0.7,1.6,81,0.00,,,0.00,,2013-02-24 13:40:00,
2013-02-25 02:50:00,58.3,52.1,30.20,NW,315,1.6,3.1,80,0.00,,,0.00,,2013-02-24 13:50:00,
2013-02-25 03:00:00,58.3,52.1,30.20,North,0,0.7,1.6,80,0.00,,,0.00,,2013-02-24 14:00:00,
2013-02-25 03:10:00,58.3,51.8,30.20,NE,45,0.0,2.2,79,0.00,,,0.00,,2013-02-24 14:10:00,
2013-02-25 03:20:00,58.3,52.1,30.20,North,0,0.7,2.2,80,0.00,,,0.00,,2013-02-24 14:20:00,
2013-02-25 03:30:00,58.3,51.8,30.20,North,0,0.0,1.6,79,0.00,,,0.00,,2013-02-24 14:30:00,
2013-02-25 03:40:00,58.5,52.0,30.20,NE,45,0.7,3.1,79,0.00,,,0.00,,2013-02-24 14:40:00,
2013-02-25 03:50:00,58.5,52.0,30.20,SE,135,1.6,3.1,79,0.00,,,0.00,,2013-02-24 14:50:00,
2013-02-25 04:00:00,58.3,51.8,30.20,North,0,1.6,3.1,79,0.00,,,0.00,,2013-02-24 15:00:00,
2013-02-25 04:10:00,58.3,51.8,30.20,North,0,1.6,3.8,79,0.00,,,0.00,,2013-02-24 15:10:00,
2013-02-25 04:20:00,58.3,51.8,30.20,North,0,1.6,3.1,79,0.00,,,0.00,,2013-02-24 15:20:00,
2013-02-25 04:30:00,58.1,51.6,30.20,NE,45,2.2,4.5,79,0.00,,,0.00,,2013-02-24 15:30:00,
2013-02-25 04:40:00,57.9,51.4,30.20,NE,45,2.2,5.4,79,0.00,,,0.00,,2013-02-24 15:40:00,
2013-02-25 04:50:00,57.9,51.4,30.20,North,0,2.2,4.5,79,0.00,,,0.00,,2013-02-24 15:50:00,
2013-02-25 05:00:00,57.6,51.4,30.20,NW,315,3.8,5.4,80,0.00,,,0.00,,2013-02-24 16:00:00,
2013-02-25 05:10:00,57.4,51.3,30.20,NE,45,1.6,3.8,80,0.00,,,0.00,,2013-02-24 16:10:00,
2013-02-25 05:20:00,57.4,51.6,30.20,North,0,0.7,2.2,81,0.00,,,0.00,,2013-02-24 16:20:00,
2013-02-25 05:30:00,57.4,51.6,30.20,North,0,2.2,3.8,81,0.00,,,0.00,,2013-02-24 16:30:00,
2013-02-25 05:40:00,57.6,51.8,30.20,NNW,337,2.2,3.8,81,0.00,,,0.00,,2013-02-24 16:40:00,
2013-02-25 05:50:00,57.6,51.8,30.20,East,90,0.7,2.2,81,0.00,,,0.00,,2013-02-24 16:50:00,
2013-02-25 06:00:00,57.6,51.8,30.20,NE,45,0.7,2.2,81,0.00,,,0.00,,2013-02-24 17:00:00,
2013-02-25 06:10:00,57.7,51.9,30.20,North,0,1.6,3.1,81,0.00,,,0.00,,2013-02-24 17:10:00,
2013-02-25 06:20:00,57.7,51.9,30.20,North,0,1.6,3.1,81,0.00,,,0.00,,2013-02-24 17:20:00,
2013-02-25 06:30:00,57.9,52.1,30.20,NE,45,4.5,6.9,81,0.00,,,0.00,,2013-02-24 17:30:00,
2013-02-25 06:40:00,58.1,52.3,30.20,NE,45,1.6,3.1,81,0.00,,,0.00,,2013-02-24 17:40:00,
2013-02-25 06:50:00,58.1,52.3,30.20,North,0,1.6,3.1,81,0.00,,,0.00,,2013-02-24 17:50:00,
2013-02-25 07:00:00,58.1,52.3,30.20,North,0,2.2,3.8,81,0.00,,,0.00,,2013-02-24 18:00:00,
2013-02-25 07:10:00,58.1,52.3,30.20,North,0,1.6,3.1,81,0.00,,,0.00,,2013-02-24 18:10:00,
2013-02-25 07:20:00,58.1,52.3,30.20,North,0,2.2,4.5,81,0.00,,,0.00,,2013-02-24 18:20:00,
2013-02-25 07:30:00,58.1,52.6,30.20,North,0,3.1,4.5,82,0.00,,,0.00,,2013-02-24 18:30:00,
2013-02-25 07:40:00,58.1,52.6,30.20,North,0,3.1,5.4,82,0.00,,,0.00,,2013-02-24 18:40:00,
2013-02-25 07:50:00,58.3,52.8,30.20,NNE,22,2.2,4.5,82,0.00,,,0.00,,2013-02-24 18:50:00,
2013-02-25 08:00:00,58.5,53.0,30.20,North,0,5.4,7.6,82,0.00,,,0.00,,2013-02-24 19:00:00,
2013-02-25 08:10:00,58.6,52.8,30.20,North,0,1.6,3.8,81,0.00,,,0.00,,2013-02-24 19:10:00,
2013-02-25 08:20:00,58.8,53.0,30.20,NW,315,2.2,4.5,81,0.00,,,0.00,,2013-02-24 19:20:00,
2013-02-25 08:30:00,59.2,53.0,30.20,North,0,3.1,5.4,80,0.00,,,0.00,,2013-02-24 19:30:00,
2013-02-25 08:40:00,59.2,52.7,30.20,North,0,5.4,6.9,79,0.00,,,0.00,,2013-02-24 19:40:00,
2013-02-25 08:50:00,59.2,52.7,30.20,NNE,22,3.8,6.9,79,0.00,,,0.00,,2013-02-24 19:50:00,
2013-02-25 09:00:00,59.4,52.8,30.20,North,0,4.5,6.0,79,0.00,,,0.00,,2013-02-24 20:00:00,
2013-02-25 09:10:00,59.7,52.8,30.20,North,0,6.9,10.7,78,0.00,,,0.00,,2013-02-24 20:10:00,
2013-02-25 09:20:00,59.7,53.2,30.20,NNW,337,3.1,6.0,79,0.00,,,0.00,,2013-02-24 20:20:00,
2013-02-25 09:30:00,59.7,53.2,30.20,NE,45,4.5,7.6,79,0.00,,,0.00,,2013-02-24 20:30:00,
2013-02-25 09:40:00,59.5,53.0,30.20,North,0,6.9,9.8,79,0.00,,,0.00,,2013-02-24 20:40:00,
2013-02-25 09:50:00,59.7,53.2,30.20,North,0,6.0,10.7,79,0.00,,,0.00,,2013-02-24 20:50:00,
2013-02-25 10:00:00,59.9,53.0,30.20,North,0,4.5,6.9,78,0.00,,,0.00,,2013-02-24 21:00:00,
2013-02-25 10:10:00,60.4,53.2,30.20,North,0,3.8,5.4,77,0.00,,,0.00,,2013-02-24 21:10:00,
2013-02-25 10:20:00,60.8,53.2,30.20,NE,45,3.8,8.3,76,0.00,,,0.00,,2013-02-24 21:20:00,
2013-02-25 10:30:00,61.2,52.8,30.20,NE,45,7.6,12.1,74,0.00,,,0.00,,2013-02-24 21:30:00,
2013-02-25 10:40:00,61.9,52.8,30.20,North,0,4.5,9.8,72,0.00,,,0.00,,2013-02-24 21:40:00,
2013-02-25 10:50:00,61.9,52.8,30.30,East,90,4.5,6.0,72,0.00,,,0.00,,2013-02-24 21:50:00,
2013-02-25 11:00:00,61.9,52.4,30.30,North,0,3.8,6.9,71,0.00,,,0.00,,2013-02-24 22:00:00,
2013-02-25 11:10:00,61.9,52.8,30.20,North,0,4.5,9.2,72,0.00,,,0.00,,2013-02-24 22:10:00,
2013-02-25 11:20:00,62.4,52.9,30.20,NE,45,5.4,8.3,71,0.00,,,0.00,,2013-02-24 22:20:00,
2013-02-25 11:30:00,63.0,52.2,30.20,East,90,10.7,15.2,68,0.00,,,0.00,,2013-02-24 22:30:00,
2013-02-25 11:40:00,62.4,52.1,30.20,East,90,5.4,8.3,69,0.00,,,0.00,,2013-02-24 22:40:00,
2013-02-25 11:50:00,63.5,52.3,30.20,ENE,67,6.9,13.6,67,0.00,,,0.00,,2013-02-24 22:50:00,
2013-02-25 12:00:00,64.4,52.0,30.20,North,0,6.0,9.8,64,0.00,,,0.00,,2013-02-24 23:00:00,
2013-02-25 12:10:00,65.1,51.8,30.20,NE,45,4.5,9.2,62,0.00,,,0.00,,2013-02-24 23:10:00,
2013-02-25 12:20:00,65.3,51.5,30.20,NE,45,6.9,12.1,61,0.00,,,0.00,,2013-02-24 23:20:00,
2013-02-25 12:30:00,65.5,52.5,30.20,NNW,337,3.8,8.3,63,0.00,,,0.00,,2013-02-24 23:30:00,
2013-02-25 12:40:00,65.7,52.3,30.20,North,0,5.4,9.2,62,0.00,,,0.00,,2013-02-24 23:40:00,
2013-02-25 12:50:00,65.7,51.8,30.20,NE,45,7.6,13.0,61,0.00,,,0.00,,2013-02-24 23:50:00,
2013-02-25 13:00:00,65.8,52.5,30.20,East,90,8.3,13.6,62,0.00,,,0.00,,2013-02-25 00:00:00,
2013-02-25 13:10:00,66.0,52.6,30.20,East,90,9.2,15.2,62,0.00,,,0.00,,2013-02-25 00:10:00,
2013-02-25 13:20:00,66.6,52.7,30.20,NE,45,7.6,13.0,61,0.00,,,0.00,,2013-02-25 00:20:00,
2013-02-25 13:30:00,66.2,52.8,30.20,NE,45,7.6,10.7,62,0.00,,,0.00,,2013-02-25 00:30:00,
2013-02-25 13:40:00,66.4,52.1,30.20,NE,45,9.8,14.5,60,0.00,,,0.00,,2013-02-25 00:40:00,
2013-02-25 13:50:00,66.4,52.1,30.20,NE,45,6.0,12.1,60,0.00,,,0.00,,2013-02-25 00:50:00,
2013-02-25 14:00:00,67.1,52.7,30.20,North,0,6.0,12.1,60,0.00,,,0.00,,2013-02-25 01:00:00,
2013-02-25 14:10:00,66.7,51.9,30.20,NE,45,8.3,13.0,59,0.00,,,0.00,,2013-02-25 01:10:00,
2013-02-25 14:20:00,66.7,51.9,30.20,North,0,6.0,9.2,59,0.00,,,0.00,,2013-02-25 01:20:00,
2013-02-25 14:30:00,67.1,51.8,30.20,East,90,7.6,12.1,58,0.00,,,0.00,,2013-02-25 01:30:00,
2013-02-25 14:40:00,67.5,52.2,30.20,NE,45,6.9,12.1,58,0.00,,,0.00,,2013-02-25 01:40:00,
2013-02-25 14:50:00,67.5,52.2,30.20,North,0,7.6,11.4,58,0.00,,,0.00,,2013-02-25 01:50:00,
2013-02-25 15:00:00,68.0,52.2,30.20,East,90,6.0,13.0,57,0.00,,,0.00,,2013-02-25 02:00:00,
2013-02-25 15:10:00,67.6,52.3,30.20,NE,45,8.3,13.6,58,0.00,,,0.00,,2013-02-25 02:10:00,
2013-02-25 15:20:00,67.3,52.5,30.20,NE,45,6.9,14.5,59,0.00,,,0.00,,2013-02-25 02:20:00,
2013-02-25 15:30:00,67.3,52.0,30.20,NE,45,9.2,14.5,58,0.00,,,0.00,,2013-02-25 02:30:00,
2013-02-25 15:40:00,67.5,52.6,30.20,NE,45,8.3,13.0,59,0.00,,,0.00,,2013-02-25 02:40:00,
2013-02-25 15:50:00,68.2,52.8,30.20,NE,45,8.3,14.5,58,0.00,,,0.00,,2013-02-25 02:50:00,
2013-02-25 16:00:00,67.5,52.6,30.20,East,90,10.7,18.3,59,0.00,,,0.00,,2013-02-25 03:00:00,
2013-02-25 16:10:00,66.6,53.1,30.20,East,90,9.8,16.8,62,0.00,,,0.00,,2013-02-25 03:10:00,
2013-02-25 16:20:00,66.4,53.0,30.20,NE,45,8.3,12.1,62,0.00,,,0.00,,2013-02-25 03:20:00,
2013-02-25 16:30:00,66.7,52.9,30.20,NE,45,9.2,15.2,61,0.00,,,0.00,,2013-02-25 03:30:00,
2013-02-25 16:40:00,67.1,53.2,30.20,NW,315,9.2,18.3,61,0.00,,,0.00,,2013-02-25 03:40:00,
2013-02-25 16:50:00,67.3,52.5,30.20,NE,45,9.8,14.5,59,0.00,,,0.00,,2013-02-25 03:50:00,
2013-02-25 17:00:00,66.6,52.7,30.20,NE,45,9.2,16.8,61,0.00,,,0.00,,2013-02-25 04:00:00,
2013-02-25 17:10:00,66.4,53.0,30.20,NE,45,6.9,13.0,62,0.00,,,0.00,,2013-02-25 04:10:00,
2013-02-25 17:20:00,65.7,52.7,30.20,NE,45,12.1,16.8,63,0.00,,,0.00,,2013-02-25 04:20:00,
2013-02-25 17:30:00,65.7,53.1,30.20,NE,45,6.9,13.6,64,0.00,,,0.00,,2013-02-25 04:30:00,
2013-02-25 17:40:00,64.8,52.7,30.20,NE,45,10.7,13.6,65,0.00,,,0.00,,2013-02-25 04:40:00,
2013-02-25 17:50:00,65.1,53.1,30.20,NE,45,6.9,11.4,65,0.00,,,0.00,,2013-02-25 04:50:00,
2013-02-25 18:10:00,64.8,53.1,30.20,NE,45,9.8,17.4,66,0.00,,,0.00,,2013-02-25 05:10:00,
2013-02-25 18:20:00,65.5,53.0,30.20,ENE,67,7.6,13.0,64,0.00,,,0.00,,2013-02-25 05:20:00,
2013-02-25 18:30:00,65.8,53.3,30.20,North,0,8.3,13.0,64,0.00,,,0.00,,2013-02-25 05:30:00,
2013-02-25 18:40:00,66.0,53.5,30.20,NE,45,8.3,13.0,64,0.00,,,0.00,,2013-02-25 05:40:00,
2013-02-25 18:50:00,64.6,53.0,30.10,NE,45,9.2,14.5,66,0.00,,,0.00,,2013-02-25 05:50:00,
2013-02-25 19:00:00,63.5,52.7,30.20,North,0,9.8,16.8,68,0.00,,,0.00,,2013-02-25 06:00:00,
2013-02-25 19:10:00,63.0,53.0,30.10,North,0,7.6,15.2,70,0.00,,,0.00,,2013-02-25 06:10:00,
2013-02-25 19:20:00,62.4,52.9,30.20,NE,45,6.9,16.8,71,0.00,,,0.00,,2013-02-25 06:20:00,
2013-02-25 19:30:00,62.8,52.8,30.10,NE,45,9.8,18.3,70,0.00,,,0.00,,2013-02-25 06:30:00,
2013-02-25 19:40:00,61.9,53.1,30.20,East,90,8.3,14.5,73,0.00,,,0.00,,2013-02-25 06:40:00,
2013-02-25 19:50:00,61.3,53.0,30.10,East,90,5.4,9.2,74,0.00,,,0.00,,2013-02-25 06:50:00,
2013-02-25 20:00:00,61.2,53.2,30.20,East,90,9.8,16.8,75,0.00,,,0.00,,2013-02-25 07:00:00,
2013-02-25 20:10:00,60.8,53.2,30.20,NE,45,5.4,8.3,76,0.00,,,0.00,,2013-02-25 07:10:00,
2013-02-25 20:20:00,60.6,53.4,30.20,NE,45,6.9,10.7,77,0.00,,,0.00,,2013-02-25 07:20:00,
2013-02-25 20:30:00,60.4,53.5,30.10,NE,45,7.6,15.9,78,0.00,,,0.00,,2013-02-25 07:30:00,
2013-02-25 20:40:00,60.3,53.7,30.20,East,90,7.6,11.4,79,0.00,,,0.00,,2013-02-25 07:40:00,
2013-02-25 20:50:00,60.1,53.9,30.20,NE,45,8.3,13.6,80,0.00,,,0.00,,2013-02-25 07:50:00,
2013-02-25 21:00:00,60.1,53.9,30.20,East,90,6.9,10.7,80,0.00,,,0.00,,2013-02-25 08:00:00,
2013-02-25 21:10:00,59.9,54.1,30.20,NE,45,3.8,7.6,81,0.00,,,0.00,,2013-02-25 08:10:00,
2013-02-25 21:20:00,59.7,53.9,30.20,ENE,67,6.9,10.7,81,0.00,,,0.00,,2013-02-25 08:20:00,
2013-02-25 21:30:00,59.7,53.9,30.20,NE,45,5.4,9.2,81,0.00,,,0.00,,2013-02-25 08:30:00,
2013-02-25 21:40:00,59.7,54.2,30.20,East,90,5.4,8.3,82,0.00,,,0.00,,2013-02-25 08:40:00,
2013-02-25 21:50:00,59.5,54.0,30.20,North,0,3.1,6.0,82,0.00,,,0.00,,2013-02-25 08:50:00,
2013-02-25 22:00:00,59.7,54.2,30.20,NE,45,6.9,10.7,82,0.00,,,0.00,,2013-02-25 09:00:00,
2013-02-25 22:10:00,59.7,54.5,30.20,NE,45,4.5,6.9,83,0.00,,,0.00,,2013-02-25 09:10:00,
2013-02-25 22:20:00,59.7,54.5,30.20,NE,45,6.9,11.4,83,0.00,,,0.00,,2013-02-25 09:20:00,
2013-02-25 22:30:00,59.7,54.5,30.20,North,0,8.3,15.2,83,0.00,,,0.00,,2013-02-25 09:30:00,
2013-02-25 22:40:00,59.7,54.5,30.20,NE,45,6.0,10.7,83,0.00,,,0.00,,2013-02-25 09:40:00,
2013-02-25 22:50:00,59.7,54.5,30.20,ENE,67,6.0,10.7,83,0.00,,,0.00,,2013-02-25 09:50:00,
2013-02-25 23:00:00,59.9,54.7,30.20,East,90,9.2,13.0,83,0.00,,,0.00,,2013-02-25 10:00:00,
2013-02-25 23:10:00,59.7,54.9,30.20,NE,45,9.2,15.9,84,0.00,,,0.00,,2013-02-25 10:10:00,
2013-02-25 23:20:00,59.7,54.9,30.20,NE,45,5.4,9.2,84,0.00,,,0.00,,2013-02-25 10:20:00,
2013-02-25 23:30:00,59.9,55.1,30.20,NE,45,6.9,9.8,84,0.00,,,0.00,,2013-02-25 10:30:00,
2013-02-25 23:40:00,59.9,55.1,30.20,East,90,7.6,10.7,84,0.00,,,0.00,,2013-02-25 10:40:00,
2013-02-25 23:50:00,59.9,55.1,30.20,NE,45,6.9,13.0,84,0.00,,,0.00,,2013-02-25 10:50:00,